Regional Weather Roundup
Issued by NWS

Home | Current Version | Previous Version | Graphics & Text | Print | Product List | Glossary On
Versions: 1 2 3 4 5 6 7 8 9 10 11 12 13 14 15 16 17 18 19 20 21 22 23 24 25 26 27 28 29 30 31 32 33 34 35 36 37 38 39 40 41 42 43 44 45 46 47 48 49 50
000
ASUS43 KDMX 240806
RWRIA

WEATHER ROUNDUP FOR IOWA
NATIONAL WEATHER SERVICE DES MOINES IA
200 AM CST FRI FEB 24 2017

NOTE: "FAIR" INDICATES FEW OR NO CLOUDS BELOW 12,000 FEET WITH NO
SIGNIFICANT WEATHER AND/OR OBSTRUCTIONS TO VISIBILITY.

* - THESE STATIONS ARE NOT NWS STATIONS...THUS NOT UNDER NWS
QUALITY CONTROL.  THEY ALSO DO NOT REPORT WEATHER SUCH
AS PRECIPITATION OR FOG.

IAZ001>003-012>014-020>022-031>034-043>046-240900-
   NORTHWEST IOWA

CITY           SKY/WX    TMP DP  RH WIND       PRES   REMARKS
CARROLL *      LGT SNOW  34  34 100 NE31      29.58F VSB 1   WCI  20
CHEROKEE *     LGT SNOW  29  28  98 N16G28    29.69S WCI  17
DENISON *      LGT RAIN  30  30 100 NE25G38   29.58R WCI  16
LE MARS *      LGT SNOW  28  27  93 N17G32    29.75R WCI  16
ORANGE CITY *    N/A     27  27 100 NE18G30   29.73R WCI  13
SHELDON *      MIX PCPN  27  27 100 N29G38    29.73R WCI  11
SIOUX CITY     SNOW      32  27  81 N22G31    29.73R VSB 1/4 WCI  19
SPENCER        FOG       28  26  92 N26G35    29.74R VSB 1   WCI  13
STORM LAKE *   SNOW      28  27  93 NE37G45   29.63F VSB 1/2 WCI  11
$$

IAZ055>058-069>071-079>083-090>094-240900-
   SOUTHWEST IOWA

CITY           SKY/WX    TMP DP  RH WIND       PRES   REMARKS
ATLANTIC *     CLOUDY    34  32  93 NE26G33   29.53S WCI  21
CLARINDA *     CLOUDY    36  36 100 NE18G25   29.52R WCI  25
COUNCIL BLFS * CLOUDY    34  34 100 N17G29    29.59R WCI  23
CRESTON *      CLOUDY    36  36 100 N23       29.50S WCI  24
HARLAN  *      CLOUDY    34  34 100 NE29G40   29.58R WCI  20
LAMONI         CLOUDY    41  40  96 N16       29.45F
RED OAK *      CLOUDY    36  34  93 NE21G30   29.53R WCI  24
SHENANDOAH *   CLOUDY    36  34  93 N15G22    29.55R WCI  26
$$

IAZ047>049-059>061-072>074-084-240900-
   CENTRAL IOWA

CITY           SKY/WX    TMP DP  RH WIND       PRES   REMARKS
AMES           LGT SNOW  33  33 100 NE15G30   29.58F FOG     WCI  23
ANKENY *       LGT RAIN  34  32  93 NE20G28   29.55F WCI  22
BOONE *        LGT SNOW  32  32 100 N30G43    29.55F WCI  18
CHARITON *     LGT RAIN  39  39 100 N17       29.47F WCI  30
DES MOINES     DRIZZLE   37  34  89 NE22      29.51F WCI  26
GRINNELL*      LGT RAIN  36  35  96 NE20G30   29.51R WCI  25
KNOXVILLE *    MIX PCPN  39  37  93 N9        29.52R WCI  33
MARSHALLTOWN   TSTM      34  34 100 NW15G22   29.64R FOG     WCI  24
NEWTON *       FOG       36  36 100 NW17      29.60R VSB 1   WCI  25
PELLA *        RAIN      38  37  97 N12       29.56R WCI  30
PERRY *        MIX PCPN  33  33  98 N18G24    29.59F WCI  22
$$

IAZ004>006-015-016-023>025-035-036-240900-
   NORTH CENTRAL IOWA

CITY           SKY/WX    TMP DP  RH WIND       PRES   REMARKS
ALGONA *       FOG       28  28 100 N24       29.75R VSB<1/4 WCI  14
CLARION *      FOG       32  32 100 MISG      29.71R VSB 1/4
ESTHERVILLE    FOG       26  26 100 N24G30    29.77R VSB 3/4 WCI  11
FORT DODGE *   CLOUDY    32  28  86 N17G29    29.69S VSB 1/2 WCI  21
MASON CITY     SNOW      31  32 100 N24G33    29.68R VSB 1/2 WCI  17
FOREST CITY *  SNOW      30  30 100 N17G23    29.71R VSB 1/2 WCI  18
WEBSTER CITY * SNOW      34  32  93 NE22G31   29.65R VSB 1/2 WCI  22
IOWA FALLS *   LGT SNOW  34  33  95 N10       29.69R WCI  26
$$

IAZ007>011-017>019-026>030-037>042-050>054-066-240900-
   NORTHEAST IOWA

CITY           SKY/WX    TMP DP  RH WIND       PRES   REMARKS
CEDAR RAPIDS   CLOUDY    35  35 100 NE21G30   29.49F FOG     WCI  24
CHARLES CITY * CLOUDY    34  34 100 NE21G43   29.60R FOG     WCI  22
CLINTON *      CLOUDY    37  35  92 NE22      29.52F WCI  26
DECORAH *      LGT RAIN  34  32  93 NE18G32   29.60F WCI  23
DUBUQUE        LGT RAIN  33  33 100 NE20G32   29.57F FOG     WCI  21
MONTICELLO *   LGT RAIN  36  34  93 NE14G35   29.54F WCI  27
OELWEIN *      CLOUDY    34  34 100 NE31G41   29.52F FOG     WCI  20
WATERLOO       TSTM      34  31  88 NE25G36   29.52F FOG     WCI  21
$$

IAZ064-065-067-068-078-240900-
   EAST CENTRAL IOWA

CITY           SKY/WX    TMP DP  RH WIND       PRES   REMARKS
DAVENPORT      CLOUDY    37  35  92 E12G24    29.51F WCI  29
IOWA CITY      CLOUDY    38  35  89 NE17G26   29.50F WCI  28
MUSCATINE *    CLOUDY    39  37  93 E17G25    29.47F WCI  30
QUAD CITIES    CLOUDY    41  36  82 E16       29.49F
$$

IAZ062-063-075>077-085>089-095>099-240900-
   SOUTHEAST IOWA

CITY           SKY/WX    TMP DP  RH WIND       PRES   REMARKS
BURLINGTON     MOCLDY    45  43  93 E15G21    29.40F FOG
FAIRFIELD *    CLOUDY    39  39 100 NE20G26   29.42F FOG     WCI  30
KEOKUK *       CLOUDY    46  46 100 NE7       29.40S FOG
OTTUMWA        CLOUDY    38  38 100 NE12G22   29.45R FOG     WCI  30
WASHINGTON *   CLOUDY    37  37 100 NE18G25   29.46F WCI  27
$$

ABBREVIATIONS USED IN REMARKS
   TC - TEMPERATURES IN CELSIUS
  WCI - WIND CHILL INDEX
   HX - HEAT INDEX
  VSB - VISIBILITY
$$




USA.gov is the U.S. government's official web portal to all federal, state and local government web resources and services.